Overview Statistics Trail Chart Weather Telemetry Raw packets
 

This is the latest recevied weather packets stored in our database for station/object GBTWP-2. If no packets are shown the sender has not sent any weather packets the latest 10 day(s).

<< 70 71 72 73 74 75 76 >>
Time Temp. Humidity Pressure Rain* Wind** Luminosity Snow
1788180119 21.11° C 92% 1019.1 hPa 0 mm - 69 W/m² -
1788179820 20.56° C 92% 1019 hPa 0 mm - 56 W/m² -
1788179520 20.56° C 93% 1019.2 hPa 0 mm - 44 W/m² -
1788179220 20.56° C 94% 1019.2 hPa 0 mm - 35 W/m² -
1788178920 20.56° C 94% 1019.1 hPa 0 mm - 30 W/m² -
1788178636 20.56° C 94% 1019.2 hPa 0 mm - 26 W/m² -
1788178320 20.56° C 95% 1019.2 hPa 0 mm - 23 W/m² -
1788178020 20.56° C 95% 1019.3 hPa 0 mm - 23 W/m² -
1788177720 20.56° C 95% 1019.2 hPa 0 mm - 26 W/m² -
1788177421 20.56° C 95% 1019.3 hPa 0 mm - 26 W/m² -
1788177119 20.56° C 95% 1019.2 hPa 0 mm - 42 W/m² -
1788176820 20° C 95% 1019.2 hPa 0 mm - 45 W/m² -
1788176520 20° C 95% 1019.3 hPa 0 mm - 34 W/m² -
1788176220 20° C 95% 1019.1 hPa 0 mm - 21 W/m² -
1788175920 20° C 95% 1019.1 hPa 0 mm - 15 W/m² -
1788175620 20° C 95% 1019.2 hPa 0 mm - 8 W/m² -
1788175320 20° C 95% 1019.3 hPa 0 mm - 4 W/m² -
1788175019 20° C 95% 1019.3 hPa 0 mm - 3 W/m² -
1788174720 20° C 94% 1019.3 hPa 0 mm - 2 W/m² -
1788174421 20° C 94% 1019.3 hPa 0 mm - 2 W/m² -
1788174120 20° C 93% 1019.4 hPa 0 mm - 1 W/m² -
1788173826 20.56° C 93% 1019.4 hPa 0 mm - 1 W/m² -
1788173520 20.56° C 92% 1019.6 hPa 1.78 mm - 0 W/m² -
1788173220 20.56° C 91% 1019.6 hPa 1.78 mm - 0 W/m² -
1788172920 20.56° C 91% 1019.4 hPa 0 mm - 0 W/m² -

* Rain latest hour (hover to see other rain measurements)
** Current wind speed in m/s (hover to see current wind gust speed)